Blythe, CA

1:22 AM PDT on April 23, 2018 (GMT -0700)
Blythe

Weather History for KBLH - August, 2014

Change the Weather History Date:

Sunday, August 10, 2014

  Actual Average Record
Temperature  
Mean Temperature 94 °F -  
Max Temperature 107 °F 106 °F 116 °F (2003)
Min Temperature 82 °F 80 °F 73 °F (2010)
Cooling Degree Days 28    
Growing Degree Days 44 (Base 50)    
Moisture  
Dew Point 58 °F    
Average Humidity 31    
Maximum Humidity 53    
Minimum Humidity 19    
Precipitation  
Precipitation 0.00 in - - ()
Sea Level Pressure  
Sea Level Pressure 29.83 in    
Wind  
Wind Speed 10 mph (South)    
Max Wind Speed 14 mph    
Max Gust Speed 17 mph    
Visibility 10 miles    
Events      
Averages and records for this station are not official NWS values.
T = Trace of Precipitation, MM = Missing Value Source: NWS Daily Summary

Daily Weather History Graph

Daily Weather History Graph

Search for Another Location

Airport or City:

Astronomy

Aug. 10, 2014 Rise Set
Actual Time 5:57 AM PDT 7:30 PM PDT
Civil Twilight 5:30 AM PDT 7:56 PM PDT
Nautical Twilight 4:58 AM PDT 8:28 PM PDT
Astronomical Twilight 4:25 AM PDT 9:02 PM PDT
Moon 7:24 PM PDT (8/10) 5:52 AM PDT (8/10)
Length of Visible Light 14h 26m
Length of Day
13h 32m
Full, 100% of the Moon is Illuminated
Aug 10
Full
Aug 17
Last Quarter
Aug 25
New
Sep 2
First Quarter
Sep 8
Full

Hourly Weather History & Observations

Time (PDT) Temp. Heat Index Dew Point Humidity Pressure Visibility Wind Dir Wind Speed Gust Speed Precip Events Conditions
12:52 AM 90.0 °F - 48.9 °F 24% 29.84 in 10.0 mi SSW 13.8 mph - N/A   Clear
1:52 AM 90.0 °F - 46.0 °F 22% 29.84 in 10.0 mi SSW 11.5 mph - N/A   Clear
2:52 AM 88.0 °F - 51.1 °F 28% 29.84 in 10.0 mi South 10.4 mph - N/A   Clear
3:52 AM 86.0 °F 85.7 °F 60.1 °F 41% 29.84 in 10.0 mi SSW 11.5 mph - N/A   Clear
4:52 AM 84.9 °F 85.9 °F 63.0 °F 48% 29.85 in 10.0 mi South 5.8 mph - N/A   Clear
5:52 AM 82.9 °F 84.4 °F 64.0 °F 53% 29.86 in 10.0 mi South 5.8 mph - N/A   Clear
7:52 AM 87.1 °F 89.2 °F 66.0 °F 49% 29.89 in 10.0 mi South 5.8 mph - N/A   Clear
8:52 AM 90.0 °F 91.3 °F 64.0 °F 42% 29.89 in 10.0 mi South 9.2 mph - N/A   Clear
9:52 AM 91.9 °F 94.1 °F 64.9 °F 41% 29.89 in 10.0 mi SSE 5.8 mph - N/A   Clear
10:52 AM 95.0 °F 97.4 °F 64.9 °F 37% 29.90 in 10.0 mi SSE 8.1 mph - N/A   Clear
11:52 AM 98.1 °F 99.1 °F 62.1 °F 30% 29.88 in 10.0 mi Variable 5.8 mph - N/A   Clear
1:52 PM 102.9 °F 100.9 °F 53.1 °F 19% 29.83 in 10.0 mi SSE 9.2 mph - N/A   Clear
2:52 PM 105.1 °F 104.4 °F 57.0 °F 20% 29.80 in 10.0 mi SE 9.2 mph - N/A   Clear
3:52 PM 105.1 °F 105.7 °F 59.0 °F 22% 29.77 in 10.0 mi SSE 10.4 mph - N/A   Clear
5:52 PM 105.1 °F 104.4 °F 57.0 °F 20% 29.73 in 10.0 mi Variable 4.6 mph - N/A   Clear
6:52 PM 105.1 °F 104.4 °F 55.9 °F 20% 29.73 in 10.0 mi SW 5.8 mph 17.3 mph N/A   Clear
7:52 PM 102.9 °F 101.9 °F 55.9 °F 21% 29.74 in 10.0 mi SW 9.2 mph - N/A   Clear
9:52 PM 99.0 °F 98.1 °F 57.9 °F 25% 29.80 in 10.0 mi SSW 12.7 mph - N/A   Clear
10:52 PM 97.0 °F 95.7 °F 57.0 °F 26% 29.80 in 10.0 mi SSW 9.2 mph - N/A   Clear
11:52 PM 96.1 °F 94.8 °F 57.0 °F 27% 29.80 in 10.0 mi SSW 5.8 mph - N/A   Clear